Date,Installs,Update checks
2018-03-01,62,25
2018-03-02,90,134
2018-03-03,71,202
2018-03-04,45,235
2018-03-05,49,244
2018-03-06,39,260
2018-03-07,32,275
2018-03-08,25,281
2018-03-09,27,307
2018-03-10,44,288
2018-03-11,32,291
2018-03-12,34,322
2018-03-13,41,330
2018-03-14,34,362
2018-03-15,23,338
2018-03-16,25,358
2018-03-17,43,363
2018-03-18,37,358
2018-03-19,23,407
2018-03-20,27,396
2018-03-21,25,393
2018-03-22,26,427
2018-03-23,21,405
2018-03-24,24,406
2018-03-25,33,420
2018-03-26,26,454
2018-03-27,30,453
2018-03-28,28,442
2018-03-29,33,459
2018-03-30,24,433
2018-03-31,18,458
2018-04-01,15,448
2018-04-02,25,460
2018-04-03,9,471
2018-04-04,14,491
2018-04-05,11,454
2018-04-06,8,472
2018-04-07,17,436
2018-04-08,18,475
2018-04-09,9,467
2018-04-10,17,456
2018-04-11,13,472
2018-04-12,8,470
2018-04-13,22,472
2018-04-14,12,454
2018-04-15,11,451
2018-04-16,8,487
2018-04-17,6,474
2018-04-18,5,470
2018-04-19,9,483
2018-04-20,4,483
2018-04-21,15,424
2018-04-22,13,470
2018-04-23,8,498
2018-04-24,10,445
2018-04-25,6,470
2018-04-26,6,475
2018-04-27,4,431
2018-04-28,9,429
2018-04-29,7,431
2018-04-30,13,444
2018-05-01,13,439
2018-05-02,9,453
2018-05-03,6,464
2018-05-04,5,443
2018-05-05,10,449
2018-05-06,20,429
2018-05-07,10,493
2018-05-08,7,453
2018-05-09,11,460
2018-05-10,8,478
2018-05-11,6,462
2018-05-12,9,444
2018-05-13,10,433
2018-05-14,6,478
2018-05-15,7,448
2018-05-16,5,448
2018-05-17,11,460
2018-05-18,14,457
2018-05-19,11,296
2018-05-20,16,506
2018-05-21,11,459
2018-05-22,13,467
2018-05-23,11,453
2018-05-24,11,428
2018-05-25,11,452
2018-05-26,11,434
2018-05-27,12,429
2018-05-28,6,480
2018-05-29,12,439
2018-05-30,10,455
2018-05-31,8,417
2018-06-01,9,441
2018-06-02,8,309
2018-06-03,9,394
2018-06-04,10,384
2018-06-05,10,388
2018-06-06,6,380
2018-06-07,8,370
2018-06-08,8,378
2018-06-09,10,350
2018-06-10,3,354
2018-06-11,9,364
2018-06-12,14,383
2018-06-13,11,384
2018-06-14,16,384
2018-06-15,8,361
2018-06-16,10,354
2018-06-17,10,371
2018-06-18,10,385
2018-06-19,8,377
2018-06-20,10,369
2018-06-21,11,381
2018-06-22,7,357
2018-06-23,6,355
2018-06-24,12,350
2018-06-25,16,376
2018-06-26,14,372
2018-06-27,3,353
2018-06-28,11,356
2018-06-29,12,378
2018-06-30,10,358
2018-07-01,5,358
2018-07-02,6,390
2018-07-03,5,345
2018-07-04,6,368
2018-07-05,9,349
2018-07-06,15,325
2018-07-07,8,328
2018-07-08,12,358
2018-07-09,27,366
2018-07-10,22,370
2018-07-11,12,382
2018-07-12,15,364
2018-07-13,9,375
2018-07-14,9,348
2018-07-15,10,376
2018-07-16,12,370
2018-07-17,8,372
2018-07-18,12,369
2018-07-19,13,366
2018-07-20,8,362
2018-07-21,10,328
2018-07-22,9,352
2018-07-23,9,351
2018-07-24,7,354
2018-07-25,11,376
2018-07-26,13,313
2018-07-27,5,351
2018-07-28,9,321
2018-07-29,9,353
2018-07-30,13,342
2018-07-31,9,327
2018-08-01,9,349
2018-08-02,6,356
2018-08-03,11,334
2018-08-04,7,323
2018-08-05,5,337
2018-08-06,6,339
2018-08-07,8,332
2018-08-08,8,310
2018-08-09,10,337
2018-08-10,3,336
2018-08-11,7,323
2018-08-12,6,344
2018-08-13,11,326
2018-08-14,6,369
2018-08-15,9,342
2018-08-16,14,332
2018-08-17,11,325
2018-08-18,12,314
2018-08-19,4,312
2018-08-20,8,346
2018-08-21,3,321
2018-08-22,10,351
2018-08-23,10,323
2018-08-24,7,337
2018-08-25,3,350
2018-08-26,4,330
2018-08-27,6,330
2018-08-28,8,352
2018-08-29,7,327
2018-08-30,8,354
2018-08-31,6,339
2018-09-01,7,327
2018-09-02,8,323
2018-09-03,8,359
2018-09-04,8,318
2018-09-05,6,357
2018-09-06,6,344
2018-09-07,5,345
2018-09-08,5,323
2018-09-09,9,315
2018-09-10,4,363
2018-09-11,5,345
2018-09-12,4,327
2018-09-13,5,325
2018-09-14,5,332
2018-09-15,1,348
2018-09-16,1,297
2018-09-17,7,356
2018-09-18,1,311
2018-09-19,6,342
2018-09-20,1,319
2018-09-21,2,297
2018-09-22,3,301
2018-09-23,4,317
2018-09-24,4,326
2018-09-25,4,304
2018-09-26,6,320
2018-09-27,1,344
2018-09-28,3,322
2018-09-29,9,314
2018-09-30,4,287
2018-10-01,5,329
2018-10-02,2,316
2018-10-03,0,318
2018-10-04,3,291
2018-10-05,3,279
2018-10-06,7,305
2018-10-07,3,301
2018-10-08,3,301
2018-10-09,6,304
2018-10-10,2,310
2018-10-11,2,308
2018-10-12,1,294
2018-10-13,4,292
2018-10-14,3,288
2018-10-15,3,309
2018-10-16,7,300
2018-10-17,6,294
2018-10-18,4,288
2018-10-19,1,292
2018-10-20,4,282
2018-10-21,7,290
2018-10-22,6,299
2018-10-23,0,271
2018-10-24,1,289
2018-10-25,0,296
2018-10-26,3,284
2018-10-27,5,274
2018-10-28,3,292
2018-10-29,4,287
2018-10-30,3,274
2018-10-31,7,313
2018-11-01,3,264
2018-11-02,3,303
2018-11-03,3,266
2018-11-04,3,273
2018-11-05,1,298
2018-11-06,4,286
2018-11-07,4,273
2018-11-08,4,288
2018-11-09,6,265
2018-11-10,4,287
2018-11-11,4,254
2018-11-12,0,267
2018-11-13,4,275
2018-11-14,1,265
2018-11-15,3,270
2018-11-16,0,255
2018-11-17,2,272
2018-11-18,2,270
2018-11-19,4,288
2018-11-20,1,265
2018-11-21,2,280
2018-11-22,4,262
2018-11-23,1,265
2018-11-24,2,243
2018-11-25,1,237
2018-11-26,3,266
2018-11-27,3,271
2018-11-28,0,240
2018-11-29,6,268
2018-11-30,1,246
2018-12-01,1,249
2018-12-02,1,243
2018-12-03,1,254
2018-12-04,0,240
2018-12-05,2,235
2018-12-06,5,253
2018-12-07,5,250
2018-12-08,3,237
2018-12-09,2,235
2018-12-10,4,246
2018-12-11,1,261
2018-12-12,1,263
2018-12-13,4,238
2018-12-14,1,242
2018-12-15,0,222
2018-12-16,5,237
2018-12-17,5,255
2018-12-18,1,241
2018-12-19,1,246
2018-12-20,1,240
2018-12-21,2,227
2018-12-22,0,219
2018-12-23,4,228
2018-12-24,2,223
2018-12-25,0,212
2018-12-26,3,234
2018-12-27,2,226
2018-12-28,0,211
2018-12-29,2,218
2018-12-30,0,204
2018-12-31,1,191
2019-01-01,1,215
2019-01-02,6,209
2019-01-03,4,221
2019-01-04,6,210
2019-01-05,2,213
2019-01-06,0,204
2019-01-07,0,224
2019-01-08,0,203
2019-01-09,3,218
2019-01-10,1,210
2019-01-11,0,230
2019-01-12,2,199
2019-01-13,0,196
2019-01-14,1,212
2019-01-15,3,207
2019-01-16,1,196
2019-01-17,1,206
2019-01-18,1,182
2019-01-19,1,184
2019-01-20,2,195
2019-01-21,2,211
2019-01-22,1,191
2019-01-23,1,200
2019-01-24,1,203
2019-01-25,2,208
2019-01-26,1,186
2019-01-27,1,176
2019-01-28,1,216
2019-01-29,1,188
2019-01-30,1,203
2019-01-31,1,182
2019-02-01,1,206
2019-02-02,2,181
2019-02-03,1,192
2019-02-04,1,185
2019-02-05,1,192
2019-02-06,1,194
2019-02-07,2,187
2019-02-08,2,192
2019-02-09,0,173
2019-02-10,0,179
2019-02-11,0,179
2019-02-12,1,189
2019-02-13,0,170
2019-02-14,1,182
2019-02-15,1,166
2019-02-16,2,176
2019-02-17,1,170
2019-02-18,0,180
2019-02-19,0,182
2019-02-20,1,182
2019-02-21,0,166
2019-02-22,0,170
2019-02-23,4,162
2019-02-24,0,153
2019-02-25,0,177
2019-02-26,0,166
2019-02-27,2,165
2019-02-28,1,170
2019-03-01,0,159
2019-03-02,0,154
2019-03-03,0,146
2019-03-04,0,165
2019-03-05,0,182
2019-03-06,0,165
2019-03-07,2,158
2019-03-08,0,156
2019-03-09,0,162
2019-03-10,0,136
2019-03-11,0,152
2019-03-12,1,166
2019-03-13,0,156
2019-03-14,1,144
2019-03-15,1,151
2019-03-16,0,155
2019-03-17,1,154
2019-03-18,0,157
2019-03-19,0,169
2019-03-20,0,154
2019-03-21,1,163
2019-03-22,0,149
2019-03-23,1,150
2019-03-24,0,143
2019-03-25,0,167
2019-03-26,3,162
2019-03-27,0,150
2019-03-28,0,149
2019-03-29,0,137
2019-03-30,0,134
2019-03-31,0,137
2019-04-01,0,162
2019-04-02,0,154
2019-04-03,0,152
2019-04-04,1,133
2019-04-05,1,138
2019-04-06,0,134
2019-04-07,0,148
2019-04-08,0,144
2019-04-09,0,150
2019-04-10,0,136
2019-04-11,0,143
2019-04-12,0,130
2019-04-13,1,127
2019-04-14,0,124
2019-04-15,2,133
2019-04-16,0,154
2019-04-17,0,136
2019-04-18,0,124
2019-04-19,0,115
2019-04-20,1,130
2019-04-21,1,128
2019-04-22,1,129
2019-04-23,0,122
2019-04-24,0,132
2019-04-25,1,126
2019-04-26,1,117
2019-04-27,2,113
2019-04-28,2,127
2019-04-29,0,131
2019-04-30,2,122
2019-05-01,0,111
2019-05-02,1,133
2019-05-03,0,124
2019-05-04,3,124
2019-05-05,0,127
2019-05-06,2,129
2019-05-07,3,120
2019-05-08,1,110
2019-05-09,0,123
2019-05-10,0,132
2019-05-11,0,96
2019-05-12,1,110
2019-05-13,0,121
2019-05-14,0,120
2019-05-15,0,115
2019-05-16,0,117
2019-05-17,0,121
2019-05-18,0,117
2019-05-19,1,111
2019-05-20,1,113
2019-05-21,0,106
2019-05-22,0,89
2019-05-23,0,103
2019-05-24,0,96
2019-05-25,1,100
2019-05-26,2,102
2019-05-27,0,99
2019-05-28,0,114
2019-05-29,1,87
2019-05-30,0,92
2019-05-31,0,99
2019-06-01,0,103
2019-06-02,0,93
2019-06-03,0,115
2019-06-04,0,114
2019-06-05,0,100
2019-06-06,0,92
2019-06-07,3,96
2019-06-08,0,90
2019-06-09,1,110
2019-06-10,1,101
2019-06-11,2,99
2019-06-12,0,94
2019-06-13,3,104
2019-06-14,1,93
2019-06-15,0,101
2019-06-16,0,80
2019-06-17,0,90
2019-06-18,0,82
2019-06-19,2,97
2019-06-20,0,84
2019-06-21,0,72
2019-06-22,1,80
2019-06-23,1,81
2019-06-24,2,91
2019-06-25,1,84
2019-06-26,0,90
2019-06-27,0,78
2019-06-28,0,86
2019-06-29,0,72
2019-06-30,2,85
2019-07-01,0,77
2019-07-02,2,79
2019-07-03,0,80
2019-07-04,1,74
2019-07-05,1,85
2019-07-06,0,71
2019-07-07,2,75
2019-07-08,1,80
2019-07-09,0,85
2019-07-10,0,77
2019-07-11,1,75
2019-07-12,1,61
2019-07-13,0,68
2019-07-14,0,71
2019-07-15,0,76
2019-07-16,0,85
2019-07-17,0,66
2019-07-18,2,70
2019-07-19,0,74
2019-07-20,0,61
2019-07-21,1,72
2019-07-22,0,71
2019-07-23,1,69
2019-07-24,0,70
2019-07-25,2,77
2019-07-26,1,69
2019-07-27,0,67
2019-07-28,0,61
2019-07-29,0,75
2019-07-30,1,82
2019-07-31,1,68
2019-08-01,0,67
2019-08-02,1,67
2019-08-03,2,58
2019-08-04,0,69
2019-08-05,0,74
2019-08-06,1,75
2019-08-07,1,61
2019-08-08,0,67
2019-08-09,0,58
2019-08-10,0,68
2019-08-11,0,62
2019-08-12,0,68
2019-08-13,1,76
2019-08-14,0,59
2019-08-15,1,66
2019-08-16,0,68
2019-08-17,1,56
2019-08-18,0,57
2019-08-19,0,71
2019-08-20,1,72
2019-08-21,0,70
2019-08-22,0,63
2019-08-23,0,72
2019-08-24,2,57
2019-08-25,0,63
2019-08-26,0,74
2019-08-27,1,66
2019-08-28,1,76
2019-08-29,0,70
2019-08-30,0,73
2019-08-31,2,49
2019-09-01,0,62
2019-09-02,2,69
2019-09-03,1,73
2019-09-04,0,80
2019-09-05,2,62
2019-09-06,0,62
2019-09-07,1,73
2019-09-08,0,67
2019-09-09,1,67
2019-09-10,0,69
2019-09-11,0,57
2019-09-12,2,59
2019-09-13,0,66
2019-09-14,1,62
2019-09-15,0,61
2019-09-16,1,64
2019-09-17,0,69
2019-09-18,0,66
2019-09-19,2,72
2019-09-20,4,67
2019-09-21,1,66
2019-09-22,1,74
2019-09-23,1,73
2019-09-24,1,62
2019-09-25,1,70
2019-09-26,0,69
2019-09-27,2,66
2019-09-28,0,66
2019-09-29,0,55
2019-09-30,0,70
2019-10-01,1,70
2019-10-02,0,60
2019-10-03,1,66
2019-10-04,0,64
2019-10-05,0,63
2019-10-06,0,59
2019-10-07,1,63
2019-10-08,1,65
2019-10-09,1,62
2019-10-10,0,61
2019-10-11,1,71
2019-10-12,0,61
2019-10-13,0,53
2019-10-14,0,66
2019-10-15,1,52
2019-10-16,0,50
2019-10-17,0,61
2019-10-18,2,65
2019-10-19,1,62
2019-10-20,1,58
2019-10-21,0,70
2019-10-22,0,57
2019-10-23,1,72
2019-10-24,0,55
2019-10-25,0,59
2019-10-26,0,58
2019-10-27,1,62
2019-10-28,1,67
2019-10-29,0,55
2019-10-30,2,57
2019-10-31,0,57
2019-11-01,0,63
2019-11-02,1,58
2019-11-03,1,60
2019-11-04,0,65
2019-11-05,0,64
2019-11-06,0,53
2019-11-07,0,62
2019-11-08,0,50
2019-11-09,1,57
2019-11-10,0,61
2019-11-11,0,57
2019-11-12,0,60
2019-11-13,0,65
2019-11-14,1,58
2019-11-15,0,55
2019-11-16,1,62
2019-11-17,0,63
2019-11-18,0,55
2019-11-19,0,54
2019-11-20,0,51
2019-11-21,1,58
2019-11-22,0,50
2019-11-23,1,48
2019-11-24,0,64
2019-11-25,0,61
2019-11-26,0,49
2019-11-27,0,49
2019-11-28,2,58
2019-11-29,0,53
2019-11-30,0,61
2019-12-01,0,52
2019-12-02,1,70
2019-12-03,1,62
2019-12-04,2,59
2019-12-05,0,49
2019-12-06,1,57
2019-12-07,0,52
2019-12-08,0,51
2019-12-09,0,61
2019-12-10,0,53
2019-12-11,0,51
2019-12-12,1,62
2019-12-13,0,60
2019-12-14,0,60
2019-12-15,0,50
2019-12-16,0,54
2019-12-17,0,51
2019-12-18,1,61
2019-12-19,1,51
2019-12-20,0,60
2019-12-21,1,51
2019-12-22,0,56
2019-12-23,1,50
2019-12-24,0,41
2019-12-25,0,55
2019-12-26,0,49
2019-12-27,0,55
2019-12-28,0,50
2019-12-29,0,46
2019-12-30,0,45
2019-12-31,0,49
2020-01-01,0,50
2020-01-02,1,50
2020-01-03,0,51
2020-01-04,1,52
2020-01-05,0,54
2020-01-06,0,47
2020-01-07,1,61
2020-01-08,0,45
2020-01-09,0,50
2020-01-10,0,38
2020-01-11,0,47
2020-01-12,0,40
2020-01-13,0,49
2020-01-14,1,46
2020-01-15,0,47
2020-01-16,0,52
2020-01-17,1,42
2020-01-18,0,43
2020-01-19,0,47
2020-01-20,0,56
2020-01-21,0,45
2020-01-22,0,44
2020-01-23,1,49
2020-01-24,0,46
2020-01-25,0,39
2020-01-26,0,42
2020-01-27,0,49
2020-01-28,2,49
2020-01-29,3,55
2020-01-30,0,41
2020-01-31,0,48
2020-02-01,0,45
2020-02-02,0,43
2020-02-03,1,51
2020-02-04,0,49
2020-02-05,0,54
2020-02-06,0,55
2020-02-07,0,41
2020-02-08,0,15
2020-02-09,0,32
2020-02-10,0,42
2020-02-11,0,53
2020-02-12,0,44
2020-02-13,0,45
2020-02-14,1,36
2020-02-15,0,45
2020-02-16,0,45
2020-02-17,0,51
2020-02-18,0,44
2020-02-19,2,48
2020-02-20,0,54
2020-02-21,0,46
2020-02-22,1,40
2020-02-23,0,34
2020-02-24,0,42
2020-02-25,0,41
2020-02-26,0,44
2020-02-27,0,44
2020-02-28,0,41
2020-02-29,0,44
2020-03-01,2,43
2020-03-02,1,43
2020-03-03,0,52
2020-03-04,0,42
2020-03-05,0,47
2020-03-06,0,37
2020-03-07,0,40
2020-03-08,1,34
2020-03-09,2,44
2020-03-10,0,42
2020-03-11,0,50
2020-03-12,0,44
2020-03-13,0,36
2020-03-14,1,47
2020-03-15,1,46
2020-03-16,0,42
2020-03-17,0,46
2020-03-18,1,44
2020-03-19,4,40
2020-03-20,0,39
2020-03-21,0,42
2020-03-22,1,44
2020-03-23,0,40
2020-03-24,1,45
2020-03-25,0,44
2020-03-26,1,49
2020-03-27,0,42
2020-03-28,0,58
2020-03-29,1,48
2020-03-30,0,51
2020-03-31,1,53
2020-04-01,2,58
2020-04-02,0,38
2020-04-03,1,57
2020-04-04,0,48
2020-04-05,0,48
2020-04-06,0,50
2020-04-07,1,51
2020-04-08,0,58
2020-04-09,1,46
2020-04-10,2,45
2020-04-11,0,52
2020-04-12,0,47
2020-04-13,0,47
2020-04-14,0,52
2020-04-15,1,54
2020-04-16,1,41
2020-04-17,1,48
2020-04-18,2,52
2020-04-19,1,54
2020-04-20,0,44
2020-04-21,1,44
2020-04-22,1,46
2020-04-23,0,48
2020-04-24,1,49
2020-04-25,1,48
2020-04-26,0,43
2020-04-27,1,39
2020-04-28,2,58
2020-04-29,0,46
2020-04-30,0,42
2020-05-01,0,50
2020-05-02,4,37
2020-05-03,1,40
2020-05-04,2,48
2020-05-05,3,49
2020-05-06,0,42
2020-05-07,0,48
2020-05-08,2,43
2020-05-09,1,43
2020-05-10,0,48
2020-05-11,2,39
2020-05-12,1,41
2020-05-13,1,43
2020-05-14,1,47
2020-05-15,3,40
2020-05-16,1,41
2020-05-17,0,42
2020-05-18,0,46
2020-05-19,0,48
2020-05-20,1,44
2020-05-21,1,38
2020-05-22,1,42
2020-05-23,1,40
2020-05-24,0,40
2020-05-25,1,44
2020-05-26,0,36
2020-05-27,1,38
2020-05-28,0,31
2020-05-29,1,38
2020-05-30,0,35
2020-05-31,2,35
2020-06-01,2,41
2020-06-02,1,40
2020-06-03,0,37
2020-06-04,1,40
2020-06-05,0,36
2020-06-06,1,33
2020-06-07,0,40
2020-06-08,0,39
2020-06-09,1,36
2020-06-10,0,34
2020-06-11,0,42
2020-06-12,0,36
2020-06-13,0,27
2020-06-14,0,23
2020-06-15,1,32
2020-06-16,0,32
2020-06-17,0,32
2020-06-18,0,32
2020-06-19,0,30
2020-06-20,0,25
2020-06-21,0,31
2020-06-22,0,33
2020-06-23,1,29
2020-06-24,2,29
2020-06-25,0,37
2020-06-26,0,31
2020-06-27,1,30
2020-06-28,0,29
2020-06-29,0,31
2020-06-30,0,28
2020-07-01,0,42
2020-07-02,1,29
2020-07-03,1,25
2020-07-04,0,22
2020-07-05,0,31
2020-07-06,1,27
2020-07-07,0,22
2020-07-08,0,27
2020-07-09,0,25
2020-07-10,2,25
2020-07-11,0,26
2020-07-12,0,21
2020-07-13,0,23
2020-07-14,0,22
2020-07-15,1,28
2020-07-16,1,26
2020-07-17,1,22
2020-07-18,0,20
2020-07-19,1,22
2020-07-20,0,27
2020-07-21,0,25
2020-07-22,0,23
2020-07-23,1,31
2020-07-24,1,17
2020-07-25,0,21
2020-07-26,1,27
2020-07-27,0,22
2020-07-28,1,32
2020-07-29,0,23
2020-07-30,3,33
2020-07-31,0,22
2020-08-01,1,24
2020-08-02,2,22
2020-08-03,0,19
2020-08-04,0,23
2020-08-05,0,19
2020-08-06,0,19
2020-08-07,0,24
2020-08-08,0,17
2020-08-09,0,19
2020-08-10,0,20
2020-08-11,1,21
2020-08-12,0,16
2020-08-13,2,21
2020-08-14,0,19
2020-08-15,1,23
2020-08-16,0,26
2020-08-17,2,14
2020-08-18,0,24
2020-08-19,0,21
2020-08-20,0,21
2020-08-21,1,24
2020-08-22,1,20
2020-08-23,1,22
2020-08-24,1,30
2020-08-25,1,24
2020-08-26,1,18
2020-08-27,0,27
2020-08-28,2,24
2020-08-29,1,21
2020-08-30,1,24
2020-08-31,0,24
2020-09-01,1,23
2020-09-02,1,27
2020-09-03,0,22
2020-09-04,0,24
2020-09-05,0,23
2020-09-06,0,18
2020-09-07,0,28
2020-09-08,0,17
2020-09-09,0,24
2020-09-10,0,19
2020-09-11,0,21
2020-09-12,1,22
2020-09-13,2,25
2020-09-14,0,21
2020-09-15,1,24
2020-09-16,0,21
2020-09-17,0,27
2020-09-18,0,20
2020-09-19,1,25
2020-09-20,1,18
2020-09-21,1,26
2020-09-22,0,29
2020-09-23,0,26
2020-09-24,2,23
2020-09-25,3,22
2020-09-26,0,23
2020-09-27,1,29
2020-09-28,1,28
2020-09-29,2,22
2020-09-30,0,20
2020-10-01,1,27
2020-10-02,0,23
2020-10-03,0,19
2020-10-04,0,28
2020-10-05,3,27
2020-10-06,0,25
2020-10-07,0,22
2020-10-08,1,26
2020-10-09,1,20
2020-10-10,1,16
2020-10-11,1,24
2020-10-12,1,28
2020-10-13,0,29
2020-10-14,1,20
2020-10-15,1,18
2020-10-16,0,23
2020-10-17,0,27
2020-10-18,3,22
2020-10-19,1,25
2020-10-20,1,19
2020-10-21,1,29
2020-10-22,0,25
2020-10-23,0,23
2020-10-24,0,23
2020-10-25,0,20
2020-10-26,1,25
2020-10-27,1,23
2020-10-28,0,24
2020-10-29,0,17
2020-10-30,0,22
2020-10-31,0,17
2020-11-01,2,21
2020-11-02,1,23
2020-11-03,1,19
2020-11-04,1,25
2020-11-05,1,25
2020-11-06,0,25
2020-11-07,2,20
2020-11-08,2,20
2020-11-09,0,26
2020-11-10,1,21
2020-11-11,0,17
2020-11-12,0,27
2020-11-13,0,24
2020-11-14,2,21
2020-11-15,0,19
2020-11-16,0,27
2020-11-17,0,18
2020-11-18,0,26
2020-11-19,0,32
2020-11-20,1,24
2020-11-21,0,19
2020-11-22,2,20
2020-11-23,2,18
2020-11-24,0,26
2020-11-25,0,21
2020-11-26,1,29
2020-11-27,1,22
2020-11-28,0,19
2020-11-29,2,29
2020-11-30,1,18
2020-12-01,0,21
2020-12-02,0,22
2020-12-03,1,22
2020-12-04,0,16
2020-12-05,1,21
2020-12-06,1,21
2020-12-07,0,24
2020-12-08,1,20
2020-12-09,0,21
2020-12-10,1,19
2020-12-11,0,24
2020-12-12,1,20
2020-12-13,1,28
2020-12-14,0,19
2020-12-15,1,17
2020-12-16,0,25
2020-12-17,0,20
2020-12-18,0,15
2020-12-19,1,18
2020-12-20,0,15
2020-12-21,0,16
2020-12-22,2,30
2020-12-23,0,20
2020-12-24,2,17
2020-12-25,1,14
2020-12-26,0,19
2020-12-27,1,15
2020-12-28,0,19
2020-12-29,0,20
2020-12-30,0,22
2020-12-31,1,15
2021-01-01,0,13
2021-01-02,0,21
2021-01-03,0,21
2021-01-04,1,20
2021-01-05,0,20
2021-01-06,0,24
2021-01-07,0,24
2021-01-08,2,25
2021-01-09,1,20
2021-01-10,2,18
2021-01-11,0,22
2021-01-12,1,19
2021-01-13,0,19
2021-01-14,1,19
2021-01-15,0,11
2021-01-16,1,15
2021-01-17,2,18
2021-01-18,0,21
2021-01-19,0,22
2021-01-20,1,17
2021-01-21,1,17
2021-01-22,0,13
2021-01-23,0,17
2021-01-24,0,22
2021-01-25,2,12
2021-01-26,0,15
2021-01-27,0,15
2021-01-28,0,14
2021-01-29,0,15
2021-01-30,1,14
2021-01-31,0,26
2021-02-01,0,23
2021-02-02,1,25
2021-02-03,0,26
2021-02-04,2,23
2021-02-05,1,16
2021-02-06,2,19
2021-02-07,0,24
2021-02-08,0,18
2021-02-09,2,20
2021-02-10,0,16
2021-02-11,0,21
2021-02-12,0,13
2021-02-13,1,15
2021-02-14,0,19
2021-02-15,2,25
2021-02-16,0,27
2021-02-17,0,27
2021-02-18,0,24
2021-02-19,2,23
2021-02-20,0,25
2021-02-21,0,17
2021-02-22,0,26
2021-02-23,1,22
2021-02-24,1,26
2021-02-25,0,24
2021-02-26,1,21
2021-02-27,2,26
2021-02-28,2,29
2021-03-01,2,31
2021-03-02,0,29
2021-03-03,0,30
2021-03-04,1,30
2021-03-05,1,29
2021-03-06,1,24
2021-03-07,0,32
2021-03-08,0,23
2021-03-09,0,24
2021-03-10,0,21
2021-03-11,1,17
2021-03-12,1,24
2021-03-13,1,24
2021-03-14,0,18
2021-03-15,0,16
2021-03-16,0,23
2021-03-17,0,18
2021-03-18,0,20
2021-03-19,0,15
2021-03-20,1,18
2021-03-21,0,15
2021-03-22,0,17
2021-03-23,0,13
2021-03-24,0,14
2021-03-25,0,15
2021-03-26,1,11
2021-03-27,0,15
2021-03-28,1,16
2021-03-29,0,13
2021-03-30,0,13
2021-03-31,1,11
2021-04-01,0,13
2021-04-02,0,10
2021-04-03,0,17
2021-04-04,0,18
2021-04-05,1,12
2021-04-06,1,18
2021-04-07,0,14
2021-04-08,0,16
2021-04-09,0,15
2021-04-10,0,19
2021-04-11,1,20
2021-04-12,0,9
2021-04-13,0,21
2021-04-14,1,17
2021-04-15,2,14
2021-04-16,0,31
2021-04-17,1,22
2021-04-18,0,27
2021-04-19,0,23
2021-04-20,0,19
2021-04-21,0,28
2021-04-22,0,23
2021-04-23,0,25
2021-04-24,0,23
2021-04-25,1,26
2021-04-26,0,24
2021-04-27,2,24
2021-04-28,0,30
2021-04-29,0,25
2021-04-30,0,30
2021-05-01,1,19
2021-05-02,0,24
2021-05-03,0,34
2021-05-04,0,25
2021-05-05,1,35
2021-05-06,0,22
2021-05-07,0,27
2021-05-08,1,25
2021-05-09,0,25
2021-05-10,1,30
2021-05-11,3,28
2021-05-12,0,25
2021-05-13,0,27
2021-05-14,0,28
2021-05-15,1,26
2021-05-16,0,26
2021-05-17,0,26
2021-05-18,0,25
2021-05-19,1,22
2021-05-20,0,20
2021-05-21,1,23
2021-05-22,0,25
2021-05-23,0,25
2021-05-24,0,21
2021-05-25,0,28
2021-05-26,0,23
2021-05-27,0,24
2021-05-28,0,26
2021-05-29,0,25
2021-05-30,0,24
2021-05-31,0,21
2021-06-01,0,23
2021-06-02,2,18
2021-06-03,0,26
2021-06-04,0,21
2021-06-05,0,11
2021-06-06,0,28
2021-06-07,0,26
2021-06-08,0,22
2021-06-09,0,19
2021-06-10,0,20
2021-06-11,2,23
2021-06-12,0,21
2021-06-13,1,20
2021-06-14,1,20
2021-06-15,2,25
2021-06-16,0,21
2021-06-17,1,21
2021-06-18,0,28
2021-06-19,0,19
2021-06-20,1,24
2021-06-21,0,23
2021-06-22,1,26
2021-06-23,0,24
2021-06-24,0,22
2021-06-25,0,19
2021-06-26,1,23
2021-06-27,0,19
2021-06-28,0,24
2021-06-29,0,22
2021-06-30,0,26
2021-07-01,1,26
2021-07-02,0,26
2021-07-03,0,20
2021-07-04,0,22
2021-07-05,0,19
2021-07-06,0,24
2021-07-07,1,18
2021-07-08,0,19
2021-07-09,0,18
2021-07-10,0,15
2021-07-11,0,20
2021-07-12,0,21
2021-07-13,0,19
2021-07-14,0,21
2021-07-15,0,16
2021-07-16,0,23
2021-07-17,0,23
2021-07-18,0,3
2021-07-19,0,6
2021-07-20,0,20
2021-07-21,0,20
2021-07-22,0,14
2021-07-23,0,19
2021-07-24,0,15
2021-07-25,0,17
2021-07-26,0,14
2021-07-27,0,20
2021-07-28,0,19
2021-07-29,0,23
2021-07-30,0,19
2021-07-31,0,18
2021-08-01,0,17
2021-08-02,1,20
2021-08-03,0,22
2021-08-04,0,21
2021-08-05,1,21
2021-08-06,0,18
2021-08-07,2,20
2021-08-08,0,22
2021-08-09,0,14
2021-08-10,1,23
2021-08-11,0,14
2021-08-12,0,15
2021-08-13,0,23
2021-08-14,0,19
2021-08-15,0,18
2021-08-16,0,21
2021-08-17,0,22
2021-08-18,2,24
2021-08-19,0,19
2021-08-20,0,18
2021-08-21,0,18
2021-08-22,0,13
2021-08-23,0,18
2021-08-24,0,16
2021-08-25,0,22
2021-08-26,1,20
2021-08-27,0,17
2021-08-28,0,14
2021-08-29,0,21
2021-08-30,1,24
2021-08-31,0,18
2021-09-01,1,18
2021-09-02,0,20
2021-09-03,0,20
2021-09-04,1,16
2021-09-05,0,19
2021-09-06,0,22
2021-09-07,0,23
2021-09-08,0,18
2021-09-09,0,21
2021-09-10,1,21
2021-09-11,0,17
2021-09-12,0,17
2021-09-13,0,21
2021-09-14,0,17
2021-09-15,0,22
2021-09-16,0,18
2021-09-17,1,17
2021-09-18,0,17
2021-09-19,1,21
2021-09-20,0,14
2021-09-21,2,21
2021-09-22,0,19
2021-09-23,0,25
2021-09-24,1,18
2021-09-25,0,17
2021-09-26,0,17
2021-09-27,0,20
2021-09-28,0,17
2021-09-29,0,22
2021-09-30,0,18
2021-10-01,1,19
2021-10-02,0,20
2021-10-03,3,24
2021-10-04,0,16
2021-10-05,0,23
2021-10-06,0,15
2021-10-07,1,18
2021-10-08,0,13
2021-10-09,0,18
2021-10-10,0,16
2021-10-11,0,20
2021-10-12,0,15
2021-10-13,0,20
2021-10-14,1,20
2021-10-15,0,18
2021-10-16,0,21
2021-10-17,1,22
2021-10-18,0,15
2021-10-19,0,14
2021-10-20,1,19
2021-10-21,0,22
2021-10-22,0,18
2021-10-23,0,13
2021-10-24,0,22
2021-10-25,1,20
2021-10-26,1,17
2021-10-27,0,17
2021-10-28,0,22
2021-10-29,0,17
2021-10-30,1,19
2021-10-31,0,17
2021-11-01,1,19
2021-11-02,0,21
2021-11-03,0,19
2021-11-04,0,17
2021-11-05,1,17
2021-11-06,1,13
2021-11-07,0,18
2021-11-08,0,18
2021-11-09,0,20
2021-11-10,0,20
2021-11-11,0,18
2021-11-12,0,18
2021-11-13,0,22
2021-11-14,0,16
2021-11-15,1,17
2021-11-16,0,19
2021-11-17,0,18
2021-11-18,0,21
2021-11-19,0,16
2021-11-20,0,19
2021-11-21,0,19
2021-11-22,0,17
2021-11-23,0,13
2021-11-24,1,15
2021-11-25,2,23
2021-11-26,0,15
2021-11-27,0,15
2021-11-28,1,15
2021-11-29,0,17
2021-11-30,0,18
2021-12-01,0,20
2021-12-02,1,20
2021-12-03,0,16
2021-12-04,0,19
2021-12-05,0,16
2021-12-06,0,21
2021-12-07,0,12
2021-12-08,0,17
2021-12-09,0,17
2021-12-10,0,17
2021-12-11,0,14
2021-12-12,1,21
2021-12-13,0,15
2021-12-14,0,20
2021-12-15,0,17
2021-12-16,0,17
2021-12-17,0,18
2021-12-18,0,17
2021-12-19,0,18
2021-12-20,0,20
2021-12-21,0,18
2021-12-22,0,13
2021-12-23,0,18
2021-12-24,0,20
2021-12-25,0,18
2021-12-26,0,17
2021-12-27,0,14
2021-12-28,0,17
2021-12-29,0,13
2021-12-30,0,18
2021-12-31,0,12
2022-01-01,0,16
2022-01-02,0,16
2022-01-03,0,15
2022-01-04,0,17
2022-01-05,0,18
2022-01-06,0,17
2022-01-07,1,16
2022-01-08,0,16
2022-01-09,0,2
2022-01-10,1,0
2022-01-11,0,20
2022-01-12,0,17
2022-01-13,0,19
2022-01-14,0,16
2022-01-15,0,20
2022-01-16,0,19
2022-01-17,0,18
2022-01-18,0,17
2022-01-19,1,19
2022-01-20,0,14
2022-01-21,0,14
2022-01-22,0,15
2022-01-23,0,14
2022-01-24,2,20
2022-01-25,1,17
2022-01-26,1,19
2022-01-27,0,19
2022-01-28,0,14
2022-01-29,1,20
2022-01-30,0,14
2022-01-31,0,20
2022-02-01,0,15
2022-02-02,0,21
2022-02-03,0,18
2022-02-04,1,15
2022-02-05,0,19
2022-02-06,1,16
2022-02-07,1,17
2022-02-08,0,16
2022-02-09,0,17
2022-02-10,1,9
2022-02-11,0,14
2022-02-12,0,14
2022-02-13,1,22
2022-02-14,0,10
2022-02-15,0,15
2022-02-16,0,13
2022-02-17,1,16
2022-02-18,1,14
2022-02-19,0,15
2022-02-20,0,19
2022-02-21,0,12
2022-02-22,0,17
2022-02-23,0,14
2022-02-24,0,13
2022-02-25,0,17
2022-02-26,0,12
2022-02-27,0,16
2022-02-28,1,17
2022-03-01,0,15
2022-03-02,1,18